This is the latest recevied weather packets stored in our database for station/object K5NAN. If no packets are shown the sender has not sent any weather packets the latest 10 day(s).
| Time | Temp. | Humidity | Pressure | Rain* | Wind** | Luminosity | Snow |
|---|---|---|---|---|---|---|---|
| 1777321009 | 31.67° C | 57% | 1006.7 hPa | 0 mm | - | 698 W/m² | - |
| 1777320707 | 31.67° C | 57% | 1006.7 hPa | 0 mm | - | 718 W/m² | - |
| 1777320404 | 31.67° C | 58% | 1006.8 hPa | 0 mm | - | 726 W/m² | - |
| 1777320101 | 31.67° C | 58% | 1006.9 hPa | 0 mm | - | 735 W/m² | - |
| 1777319798 | 31.67° C | 58% | 1007 hPa | 0 mm | - | 762 W/m² | - |
| 1777319495 | 31.67° C | 55% | 1006.8 hPa | 0 mm | - | 733 W/m² | - |
| 1777319192 | 31.67° C | 56% | 1006.7 hPa | 0 mm | - | 764 W/m² | - |
| 1777318889 | 31.67° C | 57% | 1006.8 hPa | 0 mm | - | 761 W/m² | - |
| 1777318586 | 31.67° C | 61% | 1006.7 hPa | 0 mm | - | 799 W/m² | - |
| 1777318282 | 31.11° C | 60% | 1006.8 hPa | 0 mm | - | 801 W/m² | - |
| 1777317979 | 31.11° C | 61% | 1006.9 hPa | 0 mm | - | 812 W/m² | - |
| 1777317676 | 31.11° C | 62% | 1007 hPa | 0 mm | - | 793 W/m² | - |
| 1777317373 | 31.11° C | 59% | 1006.9 hPa | 0 mm | - | 814 W/m² | - |
| 1777317068 | 31.11° C | 62% | 1006.9 hPa | 0 mm | - | 799 W/m² | - |
| 1777316766 | 30.56° C | 61% | 1006.9 hPa | 0 mm | - | 824 W/m² | - |
| 1777316462 | 30.56° C | 61% | 1006.9 hPa | 0 mm | - | 828 W/m² | - |
| 1777316159 | 30.56° C | 61% | 1006.9 hPa | 0 mm | - | 840 W/m² | - |
| 1777315857 | 30.56° C | 65% | 1006.9 hPa | 0 mm | - | 803 W/m² | - |
| 1777315556 | 30.56° C | 62% | 1006.9 hPa | 0 mm | - | 806 W/m² | - |
| 1777315253 | 30° C | 63% | 1006.9 hPa | 0 mm | - | 813 W/m² | - |
| 1777314950 | 30.56° C | 65% | 1007 hPa | 0 mm | - | 834 W/m² | - |
| 1777314646 | 30° C | 65% | 1006.9 hPa | 0 mm | - | 785 W/m² | - |
| 1777314343 | 30° C | 64% | 1007 hPa | 0 mm | - | 814 W/m² | - |
| 1777314041 | 30° C | 64% | 1006.9 hPa | 0 mm | - | 449 W/m² | - |
| 1777313738 | 30° C | 69% | 1006.9 hPa | 0 mm | - | 342 W/m² | - |
* Rain latest hour (hover to see other rain measurements)
** Current wind speed in m/s (hover to see current wind gust speed)